Location: ??????
(55.2000°N, 38.3000°E)
Time: 00:27:47
(UTC+00:00)

Cosmos 1850 Rocket - Pass Details

Date: 15 November 2025
Orbit: 751 x 780 km, 74.0° (Epoch: 12 December)

Event Time Altitude Azimuth Distance (km) Brightness Sun altitude
Exits shadow 03:14:12 12° 326° (NW) 2,131 5.9 -14.7°
Maximum altitude 03:18:51 57° 250° (WSW) 886 4.0 -14.1°
Drops below altitude 10° 03:23:53 10° 172° (S) 2,273 6.7 -13.4°
Sets 03:26:16 0° 169° (SSE) 3,196 7.6 -13.1°
